{"data":{"norad_id":46567,"intl_designator":"2020-070AM","name":"STARLINK-1741","alt_names":[],"object_type":"PAYLOAD","status":"ACTIVE","operator":null,"country":"US","launch_date":"2020-10-06","launch_site_code":"AFETR","launch_vehicle":null,"mission":null,"orbit_class":"UNKNOWN","rcs_meters":null,"size_class":null,"mass_kg":null,"dimensions":null,"purposes":["comms"],"wikipedia_slug":null,"has_3d_model":false,"image_url":null,"decayed_at":null,"tle_current":{"epoch":"2026-07-03T10:59:25.344672Z","epoch_age_seconds":6855064,"freshness":"OLD","line1":"1 46567U 20070AM  26184.45793223  .07987208  12403-4  72477-3 0  9998","line2":"2 46567  53.0152 256.3391 0007819 319.9532  40.0936 16.38061958318643","mean_motion":16.38061958,"eccentricity":0.0007819,"inclination_deg":53.0152,"raan_deg":256.3391,"arg_perigee_deg":319.9532,"mean_anomaly_deg":40.0936,"bstar":0.00072477,"rev_number":31864,"period_min":87.908762728253,"perigee_km":165.84230641029,"apogee_km":176.08378906494,"semimajor_km":6549.1000477376,"source":"CELESTRAK","updated_at":"2026-07-04T09:00:26.432462Z"}}}